Estación de San Julian

Ultimos registro cada 15 minutos 69
Estación Fecha / Hora Temperatura Humedad Lluvia Velocidad Dirección Radiación Presion
69 San Julian 31-08-2026 17:00 21 49,5 0 1,5 237 270,6 989,4
68 San Julian 31-08-2026 16:45 20,9 47,8 0 1,5 223 319,4 989,2
67 San Julian 31-08-2026 16:30 21 48,1 0 2 218 366,9 989,2
66 San Julian 31-08-2026 16:15 21,2 47,3 0 2 215 414,4 989,2
65 San Julian 31-08-2026 16:00 21 47 0 2,5 218 461,9 989,2
64 San Julian 31-08-2026 15:45 21,7 46,5 0 2 201 500,6 989,2
63 San Julian 31-08-2026 15:30 22 48,2 0 2,5 211 540,6 989,1
62 San Julian 31-08-2026 15:15 22,6 46,9 0 2,5 215 579,4 989,2
61 San Julian 31-08-2026 15:00 23,2 47,1 0 2,5 226 613,1 989
60 San Julian 31-08-2026 14:45 24,1 43,1 0 1,5 232 644,4 988,9
59 San Julian 31-08-2026 14:30 24,3 42,8 0 1,5 264 670,6 989
58 San Julian 31-08-2026 14:15 24,6 41,2 0 1 324 695,6 989,1
57 San Julian 31-08-2026 14:00 24,2 41,4 0 0,5 334 715,6 989,2
56 San Julian 31-08-2026 13:45 24,7 40,5 0 0,5 348 734,4 989,7
55 San Julian 31-08-2026 13:30 23,9 41,3 0 0,5 4 748,1 989,8
54 San Julian 31-08-2026 13:15 23,6 41,1 0 0,5 358 758,1 990,1
53 San Julian 31-08-2026 13:00 23,8 41,3 0 0 56 764,4 990,3
52 San Julian 31-08-2026 12:45 22,6 41,8 0 0,5 37 764,4 990,8
51 San Julian 31-08-2026 12:30 22,6 44,1 0 0 42 761,9 991,1
50 San Julian 31-08-2026 12:15 22,1 44,6 0 0,5 21 753,1 991,3
49 San Julian 31-08-2026 12:00 22,7 46,7 0 0,5 18 741,9 991,6
48 San Julian 31-08-2026 11:45 22 51,3 0 0,5 8 728,1 991,9
47 San Julian 31-08-2026 11:30 21,2 52,3 0 0,5 3 703,1 991,9
46 San Julian 31-08-2026 11:15 21,2 53,5 0 0 21 681,9 992,2
45 San Julian 31-08-2026 11:00 20,7 56,4 0 0 35 661,9 992,3
44 San Julian 31-08-2026 10:45 19,9 58,5 0 0,5 3 623,1 992,3
43 San Julian 31-08-2026 10:30 19,5 60,8 0 0 37 590,6 992,4
42 San Julian 31-08-2026 10:15 18,7 64,6 0 0 27 553,1 992,3
41 San Julian 31-08-2026 10:00 18,4 64,9 0 0,5 8 513,1 992,3
40 San Julian 31-08-2026 09:45 18,7 63,9 0 0 7 473,1 992,2
39 San Julian 31-08-2026 09:30 18,5 66,3 0 0 7 426,9 992,3
38 San Julian 31-08-2026 09:15 18,3 65,9 0 0 14 380,6 992,2
37 San Julian 31-08-2026 09:00 17,6 68,4 0 0 15 333,1 992,1
36 San Julian 31-08-2026 08:45 17,3 70,8 0 0 15 286,9 991,8
35 San Julian 31-08-2026 08:30 16 74,8 0 0 15 235,6 991,8
34 San Julian 31-08-2026 08:15 15,4 73,6 0 0 45 25,6 991,7
33 San Julian 31-08-2026 08:00 14,7 80,7 0 0 32 159,4 991,6
32 San Julian 31-08-2026 07:45 13,4 80,2 0 0 32 95,6 991,6
31 San Julian 31-08-2026 07:30 12,4 84,8 0 0 44 26,9 991,4
30 San Julian 31-08-2026 07:15 11,7 87,7 0 0 49 11,9 991,3
29 San Julian 31-08-2026 07:00 11,2 90,3 0 0 48 1,9 991,4
28 San Julian 31-08-2026 06:45 10,5 92,9 0 0 46 0,6 991,2
27 San Julian 31-08-2026 06:30 10,6 92,6 0 0 46 0,6 991,2
26 San Julian 31-08-2026 06:15 10,6 92,2 0 0 48 0,6 991,4
25 San Julian 31-08-2026 06:00 10,6 91,4 0 0 29 0,6 991
24 San Julian 31-08-2026 05:45 10,8 88,6 0 0 28 0,6 991
23 San Julian 31-08-2026 05:30 11,7 84,3 0 0 28 0,6 990,8
22 San Julian 31-08-2026 05:15 11,6 84,7 0 0 28 0,6 990,6
21 San Julian 31-08-2026 05:00 12,2 84,3 0 0 28 0,6 990,9
20 San Julian 31-08-2026 04:45 13 79,7 0 0 13 0,6 990,9
19 San Julian 31-08-2026 04:30 13 79,8 0 0 13 0,6 991,2
18 San Julian 31-08-2026 04:15 13 81,4 0 0,5 25 0,6 990,6
17 San Julian 31-08-2026 04:00 12,8 83,3 0 1 28 0,6 990,4
16 San Julian 31-08-2026 03:45 13 83 0 1,5 31 0,6 990,5
15 San Julian 31-08-2026 03:30 12,8 84,6 0 1,5 32 0,6 990,6
14 San Julian 31-08-2026 03:15 12,7 85,2 0 1 29 0,6 990,6
13 San Julian 31-08-2026 03:00 12,4 90,6 0 0,5 31 0,6 990,6
12 San Julian 31-08-2026 02:45 12,3 92,2 0 0,5 37 0,6 990,6
11 San Julian 31-08-2026 02:30 12,1 92,9 0 1 37 0,6 990,7
10 San Julian 31-08-2026 02:15 12,1 92,6 0 1 24 0,6 990,4
9 San Julian 31-08-2026 02:00 12 92,5 0,4 1 24 0,6 990,7
8 San Julian 31-08-2026 01:45 12,2 92,2 0,2 0,5 44 0,6 990,7
7 San Julian 31-08-2026 01:30 12,1 93,3 0 0,5 55 0,6 990,7
6 San Julian 31-08-2026 01:15 12,1 95,9 0 0 38 0,6 990,7
5 San Julian 31-08-2026 01:00 12 95,6 0 0 35 0,6 990,9
4 San Julian 31-08-2026 00:45 12 95,2 0,2 0 46 0,6 990,8
3 San Julian 31-08-2026 00:30 12,2 94,3 0,2 0 219 0,6 990,4
2 San Julian 31-08-2026 00:15 12,3 93,4 0 0 277 0,6 990,7
1 San Julian 31-08-2026 00:00 12,4 92,4 0 0 223 0,6 990,5